Theta_e
285 280 277 275 278 278 278 278 276 277 282 280 279 279 282 285 282 282 282 283 284 285 288 289 289 291 291 293 293 294 296 297 297 297 298 300 301 306 312 317 321 322 324 324
279 277 279 282 282 281 280 278 274 279 281 280 278 279 282 282 281 282 283 283 284 285 287 289 288 291 294 295 296 294 294 295 296 296 297 301 302 302 304 309 316 319 320 321
276 279 283 281 279 279 278 277 277 276 280 278 277 276 277 280 282 283 284 285 286 285 286 287 288 292 292 291 291 293 294 294 294 296 297 297 297 298 300 301 305 311 317 315
278 281 281 280 279 279 277 280 280 279 274 267 277 268 275 278 280 283 284 283 283 284 286 287 289 291 290 290 289 291 293 293 295 295 295 294 292 291 293 295 298 301 308 316
279 279 279 279 280 280 278 281 280 279 271 267 267 265 273 277 278 280 282 283 283 284 285 286 287 289 290 290 289 291 292 293 294 295 294 293 291 293 294 296 297 299 301 306
277 282 281 280 281 281 282 279 277 275 269 262 266 268 272 274 277 277 280 282 283 283 285 285 287 288 289 290 291 291 291 292 294 294 294 293 293 292 293 294 295 297 299 301
279 280 281 282 278 281 280 274 266 266 264 268 271 267 274 277 278 279 280 281 282 283 283 284 285 287 288 288 288 289 290 290 292 293 293 293 293 293 293 293 294 295 296 299
272 273 280 282 279 277 276 274 267 263 263 265 272 267 274 279 280 280 281 281 282 282 283 284 285 286 287 288 289 289 289 289 291 292 292 293 293 293 294 294 295 295 296 297
272 274 280 281 281 278 277 273 275 263 258 262 266 272 276 280 279 280 280 280 280 281 285 284 285 286 286 287 288 289 289 290 291 291 291 292 293 293 293 293 294 295 296 297
277 272 278 280 280 280 278 280 271 267 262 260 266 266 273 277 278 278 278 279 280 283 283 283 284 286 287 288 289 289 290 290 290 291 291 292 293 293 293 293 293 294 295 295
278 275 274 279 277 275 276 275 274 272 269 263 262 271 275 277 278 278 278 280 280 282 282 284 286 286 287 288 289 289 290 290 289 290 289 290 290 291 292 292 293 293 294 295
281 276 268 274 275 277 278 276 275 267 266 267 268 270 279 279 279 279 280 282 281 282 283 285 285 286 286 289 289 289 288 288 289 289 289 288 289 289 290 290 291 293 294 295
280 272 264 271 273 277 276 277 278 274 272 268 264 272 278 278 278 281 281 280 282 283 283 284 284 286 288 288 287 287 287 288 288 288 288 288 289 289 289 290 291 292 293 294
284 273 271 272 273 274 273 276 278 275 266 271 272 276 280 282 282 282 282 280 281 281 283 282 284 287 287 286 286 285 286 287 287 287 287 287 288 289 289 290 291 292 294 294
281 268 270 271 273 273 275 275 276 275 276 271 277 275 279 282 282 282 282 281 279 281 281 282 285 286 285 285 285 284 285 285 286 286 287 287 288 290 290 290 291 292 293 294
279 267 268 266 270 271 271 275 275 276 276 276 276 275 282 283 283 279 278 277 278 279 280 284 286 285 284 284 283 284 284 285 286 286 286 287 289 291 294 291 291 291 292 293
278 271 266 267 267 265 268 271 273 275 275 275 272 277 281 279 278 278 273 278 278 278 281 284 285 284 284 283 284 283 284 285 285 285 286 287 287 288 290 291 291 291 292 293
277 274 272 263 262 262 276 274 275 274 277 277 277 278 278 277 277 278 279 276 278 277 284 285 285 285 285 284 284 285 285 284 284 284 285 285 285 286 287 288 288 289 291 290
280 276 269 264 255 269 277 274 273 272 274 278 277 278 279 278 276 277 278 278 278 281 285 286 285 285 285 284 285 284 284 283 283 283 284 284 285 285 285 285 286 287 287 287
279 280 274 259 259 260 272 276 275 275 271 276 277 277 276 276 273 274 278 279 278 284 286 286 286 285 284 284 285 284 283 283 282 283 283 284 285 285 285 285 284 285 286 286
272 270 271 265 265 267 275 277 276 270 277 276 277 277 275 276 277 278 279 278 280 283 284 287 286 285 285 285 284 283 283 283 284 284 284 284 284 284 285 285 285 285 285 286
272 271 270 269 266 264 276 276 273 278 278 277 277 277 278 278 279 279 278 279 280 278 281 286 286 286 286 285 284 283 283 284 285 285 284 284 284 284 285 285 285 285 285 285
273 277 273 273 272 278 278 278 281 279 278 280 278 279 279 279 278 278 277 278 280 280 281 285 285 285 286 285 285 283 284 285 285 285 284 285 285 285 285 285 285 284 285 284
274 279 274 274 278 279 279 279 280 280 279 280 280 280 278 278 278 278 278 279 280 281 282 283 284 284 284 283 283 283 284 285 285 284 284 284 283 284 285 285 285 285 285 284
276 277 276 273 278 279 282 281 282 282 282 280 280 279 279 278 278 278 278 279 280 281 281 283 282 282 281 280 281 282 283 285 284 284 284 284 283 283 284 284 284 284 284 286
274 275 275 277 281 282 283 284 282 280 280 281 280 278 278 278 278 278 278 278 279 279 279 279 281 280 281 276 275 277 280 283 284 283 282 282 283 283 283 283 283 286 286 286
Wind_Speed
4 4 3 3 1 2 4 1 4 5 3 6 9 14 25 22 8 11 10 9 7 9 9 8 7 8 5 1 4 5 4 2 1 1 2 3 4 3 3 4 8 9 9 11
4 3 2 4 2 2 1 1 5 6 2 3 10 22 27 12 6 7 7 7 8 6 8 9 6 6 5 3 4 3 4 4 3 2 3 4 3 4 4 6 6 6 7 8
4 1 4 2 1 2 3 4 2 4 7 2 11 9 7 4 3 3 5 6 7 8 9 10 8 8 5 5 5 6 8 7 5 6 3 3 3 3 3 4 5 8 9 10
4 1 3 0 2 4 4 3 1 5 5 3 6 11 9 5 10 7 9 8 9 8 7 8 8 8 8 8 4 6 9 9 8 7 5 7 6 7 5 5 5 9 10 11
2 3 3 2 4 3 3 1 2 1 3 6 6 3 13 5 7 10 8 10 8 8 8 9 10 8 10 8 7 8 10 10 10 11 9 8 8 7 5 6 8 10 12 13
4 1 3 3 2 0 4 1 4 3 4 2 5 5 8 5 7 4 4 6 9 9 8 8 9 8 9 9 11 13 14 15 14 13 15 13 17 12 9 8 9 10 9 11
2 3 0 1 2 2 2 5 6 8 6 6 3 2 16 9 7 7 9 11 9 8 8 8 10 10 10 12 12 12 14 17 15 15 16 16 17 16 15 13 11 13 11 11
3 6 6 4 3 4 2 5 7 6 3 7 2 10 11 6 8 8 9 9 9 9 9 11 12 12 13 16 17 17 16 18 15 15 18 17 16 10 12 13 12 11 12 12
4 4 2 0 1 2 2 2 3 7 1 3 4 9 14 8 9 10 11 7 10 9 16 16 16 14 14 15 17 17 16 17 16 18 14 13 14 17 16 18 16 12 14 12
4 2 1 0 2 3 3 6 4 4 2 7 8 9 8 6 6 4 6 8 11 16 16 13 12 14 14 16 17 15 16 19 18 19 16 16 16 16 16 18 19 16 16 14
4 4 2 2 7 8 2 2 3 4 5 6 5 11 10 10 7 7 6 9 11 16 15 15 17 16 16 15 12 14 15 18 18 17 16 17 16 16 16 16 16 15 16 15
4 3 4 9 2 1 3 6 6 6 6 4 2 17 4 9 6 6 8 11 13 14 14 17 17 18 17 18 17 16 16 17 16 16 17 20 18 17 17 17 17 16 14 15
4 2 3 8 5 4 5 6 4 4 3 10 6 16 1 4 4 8 14 13 15 17 19 18 17 17 18 18 18 18 17 16 15 17 15 17 17 17 18 19 18 17 17 17
7 2 7 7 4 3 5 6 10 6 4 6 15 34 28 21 22 17 16 12 14 16 19 16 18 18 16 19 18 17 19 16 16 15 16 16 17 18 18 18 17 17 17 15
3 6 2 4 6 5 11 7 10 18 20 12 31 19 32 24 22 20 18 17 12 16 17 17 19 18 16 18 16 18 18 18 16 16 15 15 16 18 17 17 16 15 15 14
3 4 2 6 4 4 14 14 19 25 25 23 31 36 31 30 24 10 10 10 12 16 17 19 17 18 18 19 16 17 17 17 15 15 15 14 14 14 13 13 14 13 14 13
6 5 2 8 4 8 17 17 28 14 8 17 21 30 18 17 15 8 8 11 12 15 15 18 17 17 18 17 16 16 16 16 14 13 12 11 10 8 6 8 11 12 12 12
6 6 3 5 5 6 4 4 6 15 18 20 16 20 13 13 9 10 9 3 10 11 15 16 16 16 15 15 15 15 14 13 13 11 11 9 8 8 9 10 8 8 9 11
7 6 3 4 5 13 16 5 8 9 10 20 24 21 19 9 6 8 2 2 8 7 12 11 14 13 15 14 14 13 12 12 11 11 10 10 8 8 9 9 10 9 12 9
5 6 6 3 5 10 6 1 3 5 10 8 14 16 10 4 3 6 3 5 6 8 9 12 13 12 15 14 14 13 12 11 11 10 10 9 7 8 10 9 9 8 11 10
6 4 15 5 5 14 12 4 4 6 9 5 10 9 8 7 8 3 5 5 2 5 8 12 12 10 11 13 13 13 11 12 11 10 9 9 9 9 9 10 9 10 11 12
11 11 6 5 4 17 9 5 9 5 5 2 5 6 6 7 5 6 7 5 4 7 6 9 12 13 11 11 12 12 12 12 11 10 10 10 10 7 7 11 11 11 11 14
7 10 9 13 13 3 9 6 9 3 4 6 3 4 7 6 5 6 6 5 3 6 5 5 8 11 11 13 11 11 11 10 10 11 11 10 11 10 9 10 11 10 9 10
7 9 5 3 12 21 18 15 14 14 13 9 8 5 5 7 6 8 6 5 3 5 4 2 6 8 10 11 12 10 10 9 10 11 11 10 11 11 10 8 7 7 7 8
7 16 14 11 12 14 19 17 20 18 16 16 14 10 10 8 8 8 5 6 6 5 5 0 3 5 7 9 11 11 10 8 9 9 9 10 9 10 11 11 8 9 10 9
8 10 10 15 11 12 12 4 5 12 17 18 16 10 8 10 9 6 7 5 5 6 4 3 2 2 6 6 7 9 10 10 9 9 8 7 7 8 9 10 12 25 22 22
Wind_Direction
14 31 243 200 143 113 115 159 256 254 289 332 269 274 285 286 239 248 254 255 267 265 269 275 275 287 294 147 153 187 186 215 143 86 344 328 302 306 283 256 238 242 235 223
7 237 153 129 114 87 97 316 276 294 306 316 295 289 278 296 249 214 217 252 261 269 286 288 281 278 257 249 260 252 246 249 236 187 199 190 204 266 264 281 276 250 231 223
212 326 144 127 129 339 232 194 246 239 321 233 304 293 316 281 300 313 265 262 276 261 277 291 294 264 229 256 280 294 294 284 229 227 264 252 219 244 243 272 268 257 237 220
230 141 152 22 284 150 291 187 291 300 33 269 30 283 300 354 314 300 280 268 256 256 278 268 268 279 267 269 279 272 267 264 262 226 212 220 235 241 217 239 257 264 255 234
302 175 170 203 243 176 257 360 310 351 96 34 321 67 274 4 303 269 252 254 257 272 274 278 269 254 272 297 301 280 271 267 265 261 232 232 240 236 236 248 261 253 258 249
247 297 202 208 72 296 336 339 42 57 93 360 241 122 272 234 210 259 267 259 261 282 311 303 281 279 283 286 287 279 268 264 266 260 263 253 255 247 249 238 246 256 253 252
206 202 123 155 122 39 62 43 329 344 1 236 142 10 249 269 236 225 244 266 284 304 297 291 288 290 290 287 280 278 270 272 261 255 254 251 244 244 248 253 250 248 248 245
139 314 176 167 209 179 126 137 156 252 283 283 15 239 251 235 270 250 256 269 282 284 289 295 287 282 287 288 284 281 276 273 275 271 265 255 247 248 256 256 253 247 243 243
129 288 35 213 138 121 142 166 128 102 114 11 235 275 278 287 267 255 261 275 282 293 303 296 292 290 289 284 279 278 283 280 280 276 266 256 253 252 255 258 254 247 243 241
179 351 13 172 102 46 183 147 75 4 332 290 279 276 241 286 258 242 292 298 302 302 295 287 293 297 290 282 284 282 282 283 282 278 273 269 265 259 255 258 249 241 242 235
125 114 258 92 201 177 145 211 69 111 152 194 301 266 209 230 234 238 266 274 278 293 295 305 309 301 289 291 282 286 281 282 282 278 277 271 267 263 257 253 251 246 243 239
182 149 220 217 109 63 192 193 163 136 236 236 198 268 215 226 217 192 279 291 297 290 299 309 310 306 303 307 299 294 293 289 288 289 282 278 273 264 257 249 243 240 235 232
186 261 357 333 11 9 225 196 178 102 90 205 159 269 301 253 231 266 315 309 305 309 314 314 310 309 315 305 309 308 301 291 290 286 278 273 268 260 250 244 239 231 230 226
143 191 190 209 193 133 213 200 200 165 162 248 221 270 272 271 292 300 305 296 306 302 305 313 313 316 310 315 315 311 308 304 297 289 281 275 269 260 250 240 234 226 222 216
155 227 206 250 237 230 239 212 196 216 219 219 274 247 270 285 294 297 301 300 302 306 309 316 316 317 316 318 317 316 314 312 306 295 289 283 276 265 249 235 222 215 211 214
179 264 78 282 306 257 267 237 226 238 239 251 258 276 266 279 282 289 283 287 306 307 318 318 317 317 321 326 324 319 319 313 311 305 301 292 286 280 266 212 203 201 201 198
168 158 105 271 336 322 281 207 214 220 202 221 240 248 282 277 280 285 279 312 304 304 316 315 320 325 325 328 320 323 319 317 317 311 306 307 306 317 322 169 169 182 174 181
169 151 159 256 2 268 269 175 192 222 240 219 250 256 257 254 283 292 273 248 291 302 319 317 325 322 325 328 321 321 325 325 329 329 328 327 339 11 35 66 84 113 140 131
180 153 178 213 205 300 293 185 165 181 263 224 228 250 260 286 305 286 167 216 267 294 307 309 325 322 327 330 325 328 333 338 340 345 342 348 352 36 52 57 75 91 99 102
152 214 204 112 186 237 245 176 161 145 278 212 186 229 250 142 293 263 197 288 289 322 307 315 332 325 345 339 334 337 347 345 347 351 353 0 13 49 63 63 67 73 86 93
164 152 214 194 253 282 248 175 181 100 251 175 178 205 177 203 208 225 321 300 288 302 308 330 343 339 346 341 344 348 352 356 347 1 7 17 25 45 64 72 72 83 86 92
174 165 188 158 206 269 171 86 193 225 306 242 198 201 209 235 277 284 292 279 340 300 316 339 354 354 351 351 354 360 6 353 357 15 24 30 37 44 59 80 80 82 94 96
201 188 177 191 211 271 213 231 241 310 286 305 252 224 215 244 261 273 268 269 282 273 299 332 348 346 2 357 358 3 0 4 9 22 31 37 43 45 46 68 81 85 89 93
243 186 209 152 236 239 244 247 261 245 245 232 244 236 200 246 254 260 259 253 245 254 279 319 350 354 351 358 358 360 353 2 23 34 34 38 43 48 47 49 55 70 77 99
181 156 200 254 269 288 267 233 240 249 240 237 239 217 216 225 255 236 244 242 228 239 250 76 16 339 348 348 355 359 358 356 26 38 41 46 49 51 57 53 53 64 56 71
186 174 187 238 209 210 248 235 195 226 240 235 238 236 218 210 226 209 233 225 220 227 232 231 93 341 348 349 347 359 1 13 29 42 36 29 38 42 49 59 64 61 70 72